Location: NCO
(38.4404°N, 77.1340°W)
Time: 01:34:43
(UTC-04:00)

N. Korean satellite - Visible Passes

Search period start: 23 September 2017 00:00
Search period end: 03 October 2017 00:00
Orbit: 461 x 516 km, 97.2° (Epoch: 22 September)

Date Brightness Start Highest point End Pass type
(mag) Time Alt. Az. Time Alt. Az. Time Alt. Az.
23 Sep 8.5 19:45:05 10° SSW 19:48:33 35° W 19:52:00 10° NNW visible
24 Sep 7.0 19:21:34 10° S 19:25:18 75° W 19:29:02 10° NNW visible
26 Sep 9.8 20:09:56 10° SW 20:12:31 18° W 20:15:06 10° NW visible
27 Sep 8.6 19:45:47 10° SSW 19:49:12 34° W 19:52:36 10° NNW visible
28 Sep 7.0 19:22:14 10° S 19:25:57 72° W 19:29:38 10° NNW visible
30 Sep 9.8 20:10:39 10° SW 20:13:08 17° W 20:15:38 10° NW visible
01 Oct 8.6 19:46:27 10° SSW 19:49:49 33° W 19:53:09 10° NNW visible
02 Oct 7.0 19:22:51 10° S 19:26:33 70° W 19:30:12 10° NNW visible
